Lid_Strength_Index
1 -0 -1 -1 -1 -1 -1 -1 -2 -2 -2 -2 -2 -2 -2 -2 -2 -2 -2 -2 -2 -2 -2 -2 -2 -2 -2 -2 -2 -2 -2 -1 -2 -2 -2 -2 -2 -2 -2 -2 -2 -1 -2
0 -0 -1 -1 -1 -1 -1 -1 -2 -2 -2 -2 -2 -2 -2 -2 -2 -2 -2 -2 -2 -2 -2 -2 -2 -2 -1 -1 -1 -1 -1 -1 -1 -2 -2 -2 -2 -2 -2 -2 -2 -1 -2
1 -0 -0 -1 -1 -1 -1 -1 -1 -2 -2 -2 -2 -2 -2 -2 -2 -2 -2 -2 -2 -2 -2 -2 -2 -1 -0 -0 0 0 -1 -1 -1 -2 -2 -0 -1 -2 -2 -2 -2 -2 -2
0 -0 -0 -1 -1 -1 -1 -1 -2 -2 -2 -2 -2 -2 -2 -2 -2 -2 -2 -2 -2 -2 -2 -2 -1 -0 0 1 1 1 -0 -1 -3 -2 0 -0 -1 -2 -2 -2 -2 -2 -2
0 -0 -0 -1 -1 -1 -1 -2 -2 -2 -2 -2 -2 -2 -2 -2 -2 -2 -2 -2 -2 -2 -1 -1 -0 0 1 1 2 1 1 -0 -2 0 1 1 1 -1 -2 -2 -2 -2 -2
0 -0 -1 -1 -1 -1 -1 -2 -2 -2 -2 -2 -2 -2 -2 -2 -2 -2 -2 -1 -1 -1 -1 0 0 1 2 2 2 2 1 1 1 3 3 1 1 -1 -2 -2 -2 -2 -2
1 -0 -0 -1 -1 -1 -2 -2 -2 -2 -2 -2 -2 -2 -2 -2 -2 -2 -1 -1 -1 -0 0 0 1 1 2 3 3 2 2 1 5 4 3 3 2 -1 -1 -1 -1 -1 -1
1 0 -0 -1 -1 -1 -1 -2 -2 -2 -2 -2 -2 -2 -2 -2 -1 -1 -1 -0 -0 -0 0 1 1 2 3 3 3 3 2 1 5 4 4 3 0 -1 -1 -1 -1 -1 -1
0 0 -0 -0 -1 -1 -1 -1 -2 -2 -2 -2 -2 -2 -2 -1 -1 -1 -0 0 0 1 1 1 2 3 4 4 4 4 3 1 6 5 3 4 0 -0 0 0 1 1 1
1 0 0 0 0 0 0 -1 -2 -2 -2 -2 -2 -2 -1 -1 -1 -0 1 1 1 2 2 2 3 4 4 5 6 6 4 4 7 6 5 3 1 1 1 1 1 1 1
2 1 1 1 1 2 1 -1 -1 -2 -2 -2 -1 -1 1 3 3 3 2 2 2 3 3 3 4 5 6 6 7 6 6 10 7 7 6 2 1 1 1 1 1 2 2
3 2 2 2 2 2 1 0 1 -0 1 1 2 2 3 4 5 4 3 3 3 4 4 5 6 6 7 11 11 8 11 10 8 7 6 3 2 2 2 2 2 2 2
2 2 2 2 2 2 2 1 2 1 1 2 3 4 5 5 6 7 7 8 9 7 10 9 11 11 12 12 12 12 11 11 9 8 6 4 3 3 3 3 3 3 3
2 2 2 2 2 3 2 2 3 2 2 3 3 6 6 7 8 9 9 10 11 11 11 12 12 12 12 12 12 12 12 12 11 9 8 6 5 4 4 4 4 4 4
3 2 2 2 2 3 3 3 3 2 3 4 6 6 7 8 10 10 11 11 11 11 12 12 12 12 12 12 11 12 12 12 11 10 11 8 7 6 5 5 5 5 5
2 2 2 2 2 2 3 3 3 3 4 6 7 7 8 9 10 10 11 11 11 11 11 12 12 12 12 12 12 11 12 12 11 11 11 11 9 8 8 7 6 6 6
2 1 2 2 2 2 3 3 4 4 5 7 8 8 9 9 10 10 11 11 11 11 12 12 12 12 12 12 12 12 12 12 12 11 11 11 11 10 10 9 8 7 7
2 2 2 2 2 3 3 4 5 6 7 8 8 9 9 9 10 10 11 11 12 12 12 12 13 13 13 13 13 13 13 12 12 12 12 12 12 12 11 9 9 8 8
2 2 2 2 2 3 3 4 5 6 8 8 9 10 10 9 9 10 11 12 12 12 13 13 13 13 14 14 13 13 13 13 13 12 12 12 13 13 13 11 10 10 9
2 2 2 2 2 3 3 4 6 7 8 9 9 10 9 9 10 10 11 12 12 12 13 13 14 14 14 14 12 14 13 13 13 13 13 13 13 13 13 14 14 13 10
3 3 3 3 3 3 4 5 7 9 9 10 10 9 10 10 10 11 12 12 12 13 13 13 13 14 14 14 14 14 14 14 14 14 14 14 14 14 14 14 14 14 14
3 3 3 3 3 3 3 4 6 8 9 9 10 9 9 10 10 11 12 12 12 12 13 13 14 14 15 15 15 15 16 15 14 14 15 14 15 14 14 14 14 14 14
3 3 3 3 3 3 3 4 7 8 9 10 10 10 10 10 10 11 11 12 12 13 14 14 14 14 15 15 15 15 16 17 17 15 16 15 15 15 15 15 14 14 14
3 2 3 3 3 3 4 5 8 8 9 9 10 10 10 10 10 10 11 12 12 12 13 14 13 14 14 16 16 14 16 17 18 19 16 16 15 15 15 15 15 14 14
3 3 3 2 2 2 3 5 7 8 8 9 10 11 11 11 11 11 11 12 12 13 13 14 14 15 15 15 15 16 17 17 17 19 19 17 16 15 15 15 15 15 14
3 2 2 3 3 2 3 4 6 8 9 10 10 11 11 11 11 11 11 12 12 13 14 15 15 15 15 15 16 16 16 17 18 19 20 19 19 17 16 15 15 15 14